| Date | Time | Temp. (oF) | Dew Point (oF) | Rel. Hum. (%) | Press. (in.) | Wind Dir. | Wind Speed (mph) | Hourly Rainfall (in.) |
|
|---|---|---|---|---|---|---|---|---|---|
| 1 | 08/29 | 00:00 | 68 | 68 | 100 | 29.93 | ESE | 0 | 0.00 |
| 2 | 08/28 | 23:00 | 68 | 68 | 100 | 29.96 | SSW | 5 | 0.69 |
| 3 | 08/28 | 22:00 | 70 | 69 | 100 | 29.97 | SE | 3 | 0.40 |
| 4 | 08/28 | 21:00 | 70 | 69 | 99 | 29.99 | SE | 0 | 0.17 |
| 5 | 08/28 | 20:00 | 70 | 69 | 98 | 29.98 | E | 0 | 0.08 |
| 6 | 08/28 | 19:00 | 71 | 69 | 96 | 29.97 | ENE | 0 | 0.04 |
| 7 | 08/28 | 18:00 | 71 | 69 | 94 | 29.98 | ESE | 4 | 0.00 |
| 8 | 08/28 | 17:00 | 71 | 68 | 93 | 29.98 | SE | 6 | 0.01 |
| 9 | 08/28 | 16:00 | 73 | 68 | 87 | 29.99 | SE | 6 | 0.00 |
| 10 | 08/28 | 15:00 | 75 | 70 | 86 | 30.01 | SE | 4 | 0.00 |
| 11 | 08/28 | 14:00 | 74 | 70 | 89 | 30.03 | SE | 0 | 0.00 |
| 12 | 08/28 | 13:00 | 75 | 71 | 89 | 30.03 | SE | 10 | 0.00 |
| 13 | 08/28 | 12:00 | 74 | 72 | 96 | 30.05 | SE | 5 | 0.00 |
| 14 | 08/28 | 11:00 | 70 | 69 | 100 | 30.06 | E | 1 | 0.00 |
| 15 | 08/28 | 10:00 | 69 | 68 | 100 | 30.06 | ENE | 0 | 0.10 |
| 16 | 08/28 | 09:00 | 68 | 67 | 99 | 30.06 | ESE | 0 | 0.24 |
| 17 | 08/28 | 08:00 | 68 | 66 | 96 | 30.08 | ENE | 0 | 0.00 |
| 18 | miss | miss | miss | miss | miss | miss | miss | miss | |
| 19 | 08/28 | 01:45 | 70 | 64 | 84 | 30.08 | ENE | 2 | 0.00 |
| 20 | miss | miss | miss | miss | miss | miss | miss | miss | |
| 21 | 08/28 | 01:45 | 70 | 64 | 84 | 30.08 | ENE | 2 | 0.00 |
| 22 | miss | miss | miss | miss | miss | miss | miss | miss | |
| 23 | 08/28 | 01:45 | 70 | 64 | 84 | 30.08 | ENE | 2 | 0.00 |
| 24 | 08/28 | 01:00 | 71 | 65 | 83 | 30.08 | ENE | 3 | 0.00 |